Meteo pe oră la Irbid

Astăzi, 31 Octombrie, Sâmbătă

Timp Temperatura Precipitaţii Vânt Presiune Umiditate
00:00 +16°C° 0 mm 0 m/s 710 mmHg 83%
01:00 +16°C° 0 mm 0 m/s 710 mmHg 84%
02:00 +18°C° 0 mm 1 m/s 710 mmHg 84%
03:00 +16°C° 0 mm 1 m/s 710 mmHg 85%
04:00 +16°C° 0 mm 1 m/s 710 mmHg 85%
05:00 +16°C° 0 mm 1 m/s 710 mmHg 86%
06:00 +19°C° 0 mm 1 m/s 711 mmHg 79%
07:00 +19°C° 0 mm 0 m/s 711 mmHg 71%
08:00 +21°C° 0 mm 0 m/s 712 mmHg 64%
09:00 +25°C° 0 mm 1 m/s 712 mmHg 57%
10:00 +27°C° 0 mm 1 m/s 711 mmHg 49%
11:00 +29°C° 0 mm 2 m/s 711 mmHg 41%
12:00 +29°C° 0 mm 2 m/s 711 mmHg 38%
13:00 +30°C° 0 mm 3 m/s 711 mmHg 36%
14:00 +30°C° 0 mm 4 m/s 710 mmHg 36%
15:00 +28°C° 0 mm 4 m/s 710 mmHg 49%
16:00 +25°C° 0 mm 3 m/s 710 mmHg 62%
17:00 +22°C° 0 mm 3 m/s 709 mmHg 74%
18:00 +21°C° 0 mm 3 m/s 710 mmHg 79%
19:00 +19°C° 0 mm 2 m/s 710 mmHg 83%
20:00 +19°C° 0 mm 1 m/s 710 mmHg 88%
21:00 +19°C° 0 mm 1 m/s 710 mmHg 89%
22:00 +18°C° 0 mm 1 m/s 710 mmHg 91%
23:00 +18°C° 0 mm 1 m/s 710 mmHg 92%

Mâine, 1 Noiembrie, Duminică

Timp Temperatura Precipitaţii Vânt Presiune Umiditate
00:00 +18°C° 0 mm 1 m/s 710 mmHg 93%
01:00 +16°C° 0 mm 1 m/s 710 mmHg 94%
02:00 +16°C° 0 mm 1 m/s 710 mmHg 95%
03:00 +16°C° 0 mm 1 m/s 710 mmHg 95%
04:00 +16°C° 0 mm 1 m/s 710 mmHg 95%
05:00 +16°C° 0 mm 1 m/s 710 mmHg 95%
06:00 +18°C° 0 mm 1 m/s 710 mmHg 91%
07:00 +19°C° 0 mm 1 m/s 711 mmHg 86%
08:00 +21°C° 0 mm 1 m/s 711 mmHg 82%
09:00 +21°C° 0 mm 2 m/s 711 mmHg 72%
10:00 +24°C° 0 mm 3 m/s 712 mmHg 63%
11:00 +26°C° 0 mm 3 m/s 712 mmHg 54%
12:00 +26°C° 0 mm 4 m/s 712 mmHg 50%
13:00 +27°C° 0 mm 5 m/s 711 mmHg 46%
14:00 +28°C° 0 mm 6 m/s 711 mmHg 43%
15:00 +26°C° 0 mm 5 m/s 711 mmHg 52%
16:00 +22°C° 0 mm 4 m/s 711 mmHg 60%
17:00 +20°C° 0 mm 3 m/s 711 mmHg 69%
18:00 +20°C° 0.1 mm 3 m/s 711 mmHg 72%
19:00 +19°C° 0.1 mm 2 m/s 711 mmHg 74%
20:00 +19°C° 0.1 mm 2 m/s 712 mmHg 77%
21:00 +18°C° 0 mm 2 m/s 712 mmHg 79%
22:00 +19°C° 0 mm 1 m/s 711 mmHg 80%
23:00 +19°C° 0 mm 1 m/s 711 mmHg 82%

Poimâine, 2 Noiembrie, Luni

Timp Temperatura Precipitaţii Vânt Presiune Umiditate
00:00 +18°C° 0 mm 1 m/s 711 mmHg 84%
01:00 +16°C° 0 mm 1 m/s 711 mmHg 86%
02:00 +16°C° 0 mm 1 m/s 711 mmHg 88%
03:00 +16°C° 0 mm 1 m/s 711 mmHg 89%
04:00 +14°C° 0 mm 0 m/s 711 mmHg 90%
05:00 +14°C° 0 mm 0 m/s 711 mmHg 90%
06:00 +16°C° 0 mm 1 m/s 712 mmHg 85%
07:00 +19°C° 0 mm 1 m/s 712 mmHg 80%
08:00 +20°C° 0 mm 1 m/s 713 mmHg 75%
09:00 +21°C° 0.1 mm 2 m/s 713 mmHg 69%
10:00 +23°C° 0.1 mm 2 m/s 713 mmHg 62%
11:00 +24°C° 0.1 mm 3 m/s 713 mmHg 55%
12:00 +25°C° 0.2 mm 4 m/s 713 mmHg 53%
13:00 +25°C° 0.2 mm 5 m/s 713 mmHg 51%
14:00 +26°C° 0.2 mm 6 m/s 712 mmHg 48%
15:00 +23°C° 0.2 mm 5 m/s 712 mmHg 53%
16:00 +22°C° 0.2 mm 5 m/s 712 mmHg 58%
17:00 +20°C° 0.2 mm 5 m/s 712 mmHg 63%
18:00 +19°C° 0 mm 4 m/s 712 mmHg 68%
19:00 +18°C° 0 mm 3 m/s 712 mmHg 74%
20:00 +17°C° 0 mm 2 m/s 713 mmHg 79%
21:00 +16°C° 0 mm 2 m/s 713 mmHg 81%
22:00 +16°C° 0 mm 1 m/s 713 mmHg 83%
23:00 +16°C° 0 mm 1 m/s 713 mmHg 84%

3 Noiembrie, Marţi

Timp Temperatura Precipitaţii Vânt Presiune Umiditate
00:00 +15°C° 0 mm 1 m/s 713 mmHg 86%
01:00 +15°C° 0 mm 1 m/s 712 mmHg 87%
02:00 +14°C° 0 mm 1 m/s 712 mmHg 88%
03:00 +14°C° 0 mm 1 m/s 712 mmHg 89%
04:00 +13°C° 0 mm 0 m/s 712 mmHg 90%
05:00 +12°C° 0 mm 0 m/s 712 mmHg 91%
06:00 +14°C° 0 mm 0 m/s 712 mmHg 84%
07:00 +16°C° 0 mm 0 m/s 713 mmHg 78%
08:00 +17°C° 0 mm 0 m/s 713 mmHg 71%
09:00 +21°C° 0 mm 1 m/s 713 mmHg 65%
10:00 +21°C° 0 mm 2 m/s 713 mmHg 59%
11:00 +24°C° 0 mm 2 m/s 714 mmHg 52%
12:00 +24°C° 0 mm 3 m/s 713 mmHg 50%
13:00 +25°C° 0 mm 3 m/s 713 mmHg 47%
14:00 +25°C° 0 mm 4 m/s 712 mmHg 44%
15:00 +23°C° 0 mm 4 m/s 712 mmHg 50%
16:00 +22°C° 0 mm 4 m/s 712 mmHg 55%
17:00 +20°C° 0 mm 4 m/s 712 mmHg 61%
18:00 +19°C° 0 mm 3 m/s 712 mmHg 67%
19:00 +18°C° 0 mm 2 m/s 712 mmHg 73%
20:00 +16°C° 0 mm 2 m/s 712 mmHg 80%
21:00 +16°C° 0 mm 1 m/s 712 mmHg 81%
22:00 +15°C° 0 mm 1 m/s 712 mmHg 82%
23:00 +15°C° 0 mm 1 m/s 712 mmHg 84%

4 Noiembrie, Miercuri

Timp Temperatura Precipitaţii Vânt Presiune Umiditate
00:00 +15°C° 0 mm 1 m/s 712 mmHg 85%
01:00 +14°C° 0 mm 1 m/s 711 mmHg 85%
02:00 +14°C° 0 mm 1 m/s 711 mmHg 86%
03:00 +14°C° 0 mm 1 m/s 711 mmHg 87%
04:00 +14°C° 0 mm 1 m/s 711 mmHg 88%
05:00 +14°C° 0 mm 1 m/s 711 mmHg 89%
06:00 +15°C° 0 mm 1 m/s 711 mmHg 83%
07:00 +16°C° 0 mm 1 m/s 711 mmHg 78%
08:00 +19°C° 0 mm 1 m/s 712 mmHg 73%
09:00 +19°C° 0 mm 2 m/s 712 mmHg 66%
10:00 +20°C° 0 mm 2 m/s 712 mmHg 58%
11:00 +21°C° 0 mm 3 m/s 712 mmHg 50%
12:00 +22°C° 0.1 mm 4 m/s 712 mmHg 51%
13:00 +22°C° 0.1 mm 4 m/s 711 mmHg 52%
14:00 +22°C° 0.1 mm 5 m/s 711 mmHg 53%
15:00 +20°C° 0.1 mm 5 m/s 711 mmHg 57%
16:00 +19°C° 0.1 mm 5 m/s 711 mmHg 62%
17:00 +17°C° 0.1 mm 5 m/s 711 mmHg 67%
18:00 +18°C° 0 mm 4 m/s 711 mmHg 71%
19:00 +17°C° 0 mm 3 m/s 710 mmHg 76%
20:00 +16°C° 0 mm 1 m/s 710 mmHg 80%
21:00 +16°C° 0 mm 1 m/s 710 mmHg 81%
22:00 +16°C° 0 mm 1 m/s 710 mmHg 81%
23:00 +16°C° 0 mm 1 m/s 710 mmHg 82%

5 Noiembrie, Joi

Timp Temperatura Precipitaţii Vânt Presiune Umiditate
00:00 +15°C° 0.1 mm 1 m/s 710 mmHg 83%
01:00 +15°C° 0.1 mm 1 m/s 710 mmHg 85%
02:00 +14°C° 0.1 mm 1 m/s 710 mmHg 86%
03:00 +14°C° 0.3 mm 1 m/s 709 mmHg 86%
04:00 +14°C° 0.3 mm 1 m/s 709 mmHg 85%
05:00 +14°C° 0.3 mm 1 m/s 709 mmHg 85%
06:00 +15°C° 0.5 mm 2 m/s 709 mmHg 80%
07:00 +16°C° 0.5 mm 2 m/s 710 mmHg 75%
08:00 +17°C° 0.5 mm 3 m/s 710 mmHg 70%
09:00 +18°C° 0.2 mm 4 m/s 710 mmHg 64%
10:00 +19°C° 0.2 mm 4 m/s 710 mmHg 58%
11:00 +20°C° 0.2 mm 5 m/s 710 mmHg 52%
12:00 +21°C° 0.4 mm 5 m/s 709 mmHg 52%
13:00 +21°C° 0.4 mm 5 m/s 709 mmHg 51%
14:00 +21°C° 0.4 mm 6 m/s 709 mmHg 51%
15:00 +20°C° 0.5 mm 5 m/s 709 mmHg 55%
16:00 +19°C° 0.5 mm 4 m/s 709 mmHg 60%
17:00 +18°C° 0.5 mm 4 m/s 709 mmHg 64%
18:00 +17°C° 0.4 mm 3 m/s 709 mmHg 67%
19:00 +17°C° 0.4 mm 3 m/s 709 mmHg 71%
20:00 +16°C° 0.4 mm 2 m/s 709 mmHg 74%
21:00 +16°C° 0.2 mm 2 m/s 709 mmHg 75%
22:00 +16°C° 0.2 mm 2 m/s 709 mmHg 77%
23:00 +16°C° 0.2 mm 2 m/s 709 mmHg 78%
Arată mai mult

Formular de consimțământ

Meteoprog și furnizorii noștri de servicii pot stoca și accesa date personale, precum cookies, identificatori de dispozitiv sau alte tehnologii similare pe dispozitivul dumneavoastră și procesa astfel de date pentru a personaliza conținutul și reclamele, dar și pentru a oferi caracteristici de social media și pentru a analiza traficul.

  • Stocarea și/sau accesarea informațiilor pe dispozitivul dumneavoastră

    Cookies, identificatori de dispozitiv sau alte informații pot fi stocate sau accesate pe dispozitiv în scopurile indicate mai sus.

  • Reclame și conținut personalizat, evaluarea reclamelor și a conținutului, informații despre audiențe și dezvoltarea produselor

    Reclamele și conținutul pot fi personalizate pe baza unui profil. Pot fi adăugate date suplimentare pentru a personaliza mai bine reclamele și conținutul. Performanța reclamelor și conținutului poate fi măsurată. Pot fi obținute informații despre utilizatorii care au văzut reclamele și conținutul. Aceste date pot fi utilizate pentru a dezvolta sau îmbunătăți experiența utilizatorilor, sistemele și software-ul.

Dând clic pe ‘Sunt de acord’, permiteți utilizarea cookie-urilor menționate, a identificatorilor de dispozitiv, balizelor web sau altor tehnologii similare. Setările pot fi modificate din browser-ul dispozitivului dumneavoastră.

În anumite scopuri, interesele legitime pot prima asupra consimțământului. Puteți citi mai multe informații în acest sens în Politica privind Confidențialitatea Datelor și Cookie.